Theta_e
343 343 344 348 349 351 352 353 348 346 345 347 345 345 345 344 346 348 350 351 350 347 347 345 345 346 347 346 346 346 346 346 345 345 345 345 345 345 346 346 346 346 345 346 345 346 346 345 344 344 345 346 346 345 345 344 341 340 332 334 333 336
342 340 342 347 348 350 352 351 347 343 345 345 343 345 343 344 346 346 349 348 348 347 345 345 345 348 346 347 345 346 346 346 345 345 345 345 345 345 345 345 345 345 346 346 346 343 340 343 344 343 343 346 345 341 343 342 341 341 332 331 335 340
342 342 344 345 347 348 349 349 345 345 346 345 344 344 343 343 342 344 346 347 348 347 346 345 345 346 346 346 345 346 346 346 346 346 345 345 345 344 344 344 344 345 344 345 343 339 336 335 338 343 344 343 339 341 342 341 339 335 331 332 334 342
344 344 345 345 346 348 349 348 346 344 345 345 343 342 343 343 343 344 345 346 346 348 347 344 346 346 344 348 344 346 346 346 345 346 346 344 344 344 344 343 344 344 344 342 337 334 334 335 335 337 339 337 337 341 341 340 337 336 331 334 336 342
348 346 347 347 347 347 349 347 346 342 345 346 343 342 341 341 342 344 345 348 345 348 346 346 345 344 344 342 344 342 343 343 343 342 345 342 342 341 344 341 341 343 340 335 333 332 333 335 337 335 335 336 338 340 340 339 339 340 333 332 337 342
348 348 350 349 348 348 349 347 344 343 340 340 344 343 343 342 345 345 345 347 348 348 345 345 344 346 343 340 340 340 343 342 342 341 342 341 341 340 341 339 337 337 336 333 331 332 333 336 337 337 336 338 339 340 339 341 341 338 334 335 339 341
345 347 349 347 348 348 348 348 346 342 341 342 342 341 340 341 346 346 346 348 347 346 342 345 343 341 342 343 340 340 341 343 345 345 342 339 337 338 340 340 338 335 333 332 330 331 333 335 334 333 335 336 339 339 342 341 342 340 335 334 340 342
345 346 347 345 345 346 348 348 345 342 344 343 339 338 340 343 347 348 348 348 347 346 342 343 342 341 341 342 340 338 341 341 343 345 344 338 336 337 338 338 338 336 331 329 330 331 332 330 335 335 334 338 336 336 339 340 338 340 337 335 338 341
343 345 346 345 343 345 347 348 347 345 344 345 343 343 345 347 347 347 347 345 344 343 341 340 342 339 339 339 340 341 343 340 341 342 340 338 335 335 336 336 335 334 331 328 330 332 331 331 340 339 338 334 334 335 336 340 340 339 339 336 335 339
343 343 344 345 345 345 347 347 346 346 346 346 346 347 348 346 346 346 345 344 344 344 345 341 341 342 338 339 341 341 342 342 342 342 340 337 336 335 335 334 333 333 332 331 331 333 334 331 332 334 333 336 334 337 338 338 339 340 341 338 336 338
342 343 345 345 345 345 346 347 346 346 346 345 346 347 346 345 345 345 345 346 344 345 344 344 339 339 339 341 341 341 342 344 344 341 340 338 337 335 338 335 334 335 334 332 331 332 333 330 334 330 333 331 336 338 339 341 339 339 338 341 338 337
346 345 344 344 344 343 344 345 345 345 345 345 346 346 345 344 345 344 345 346 346 345 345 344 339 338 339 340 341 340 342 343 342 343 342 340 338 334 336 333 334 336 336 335 332 332 331 332 331 330 331 331 335 341 339 344 338 337 338 341 340 336
349 344 345 343 342 342 346 344 343 342 344 345 346 346 344 344 345 346 346 346 346 345 345 344 340 340 340 342 342 342 341 342 343 344 342 340 338 337 338 335 336 334 333 333 333 330 330 329 331 332 339 332 334 335 337 336 341 342 339 341 341 339
350 346 344 344 342 342 344 343 342 342 343 344 345 344 344 344 346 347 346 346 345 345 344 345 344 343 344 344 343 342 341 342 343 343 343 340 337 335 334 333 331 331 333 331 333 332 336 329 329 336 339 337 342 341 337 336 339 341 341 339 340 341
351 350 346 343 342 340 341 340 340 339 341 341 340 342 343 343 344 344 345 345 345 344 342 340 343 344 343 343 343 342 342 342 343 342 341 341 338 336 337 335 332 328 332 339 333 332 331 333 332 333 340 343 341 339 343 341 340 339 340 340 342 341
350 350 349 344 342 340 339 339 339 340 339 339 340 341 341 342 343 344 344 344 344 344 343 342 343 343 343 342 341 341 341 343 344 345 344 342 340 336 335 335 335 340 339 330 331 328 334 334 337 339 347 345 347 344 342 342 342 338 340 340 342 343
349 349 349 348 342 340 336 337 337 337 338 337 339 339 340 341 341 342 344 343 344 344 344 343 342 343 343 341 341 340 342 343 345 345 344 341 339 338 336 332 340 341 337 333 325 324 327 339 341 342 344 345 344 347 343 342 341 341 342 339 340 341
350 350 350 349 345 337 335 335 336 337 338 336 338 339 341 340 339 341 343 343 345 345 344 342 342 343 343 341 341 340 342 344 343 343 342 341 339 340 337 337 338 337 332 330 326 323 332 338 340 342 342 343 345 345 343 344 345 346 339 337 342 340
349 349 349 349 349 342 336 335 337 336 337 338 339 341 343 341 340 341 342 344 344 344 344 343 343 343 342 340 340 340 340 342 341 341 340 340 338 339 338 338 341 344 346 342 338 341 341 340 341 340 341 342 344 344 347 346 343 341 339 337 340 340
349 349 350 349 348 346 340 335 334 336 335 338 340 341 342 341 342 341 342 344 344 344 344 343 343 343 340 338 338 338 339 340 340 340 338 337 337 338 337 338 338 339 340 341 339 343 342 342 342 340 342 343 344 344 343 345 344 341 342 343 342 341
348 348 347 345 345 344 342 341 340 337 335 338 340 342 342 343 343 343 343 343 344 344 344 343 342 339 337 338 337 337 337 337 340 340 340 338 339 340 339 340 340 339 338 338 338 343 343 343 339 339 343 341 343 344 344 344 342 340 339 343 343 340
347 347 347 346 345 345 344 343 342 341 341 341 340 341 341 342 343 344 344 343 343 343 343 343 342 339 338 337 335 335 335 334 337 340 341 341 342 341 341 338 338 337 339 338 336 339 343 338 335 333 332 334 337 342 342 341 339 339 339 340 341 343
347 346 347 347 347 344 346 347 344 344 343 342 344 344 344 344 344 344 344 343 342 342 344 342 340 339 339 338 338 337 336 337 338 341 341 340 340 339 340 337 337 336 337 339 338 342 338 338 334 335 338 333 328 328 335 338 341 341 340 341 340 341
347 346 346 347 347 347 348 349 349 348 347 345 343 345 346 346 344 344 342 343 343 343 344 343 341 342 342 340 339 336 335 336 339 342 340 339 339 340 340 337 336 338 339 334 335 334 341 336 338 333 327 327 329 328 323 327 331 336 338 339 341 344
347 346 346 347 348 348 348 347 348 349 348 347 347 343 342 341 342 342 342 343 343 343 343 343 344 343 342 342 340 338 336 337 339 341 341 340 339 339 340 339 339 339 337 333 330 332 334 337 336 337 336 329 326 323 323 330 329 336 341 338 337 344
347 347 347 348 348 348 346 344 344 342 340 341 340 339 338 338 338 339 339 342 344 344 344 342 342 342 342 343 341 340 339 339 341 342 341 340 341 341 339 339 340 338 336 336 332 331 330 336 336 338 339 342 337 329 326 330 329 324 335 339 339 342
347 346 347 347 347 347 346 343 343 342 342 341 339 340 342 343 341 341 342 342 343 343 342 342 342 341 341 341 342 341 341 342 342 341 343 341 339 339 339 339 340 337 336 337 335 330 330 330 336 335 339 340 338 337 336 331 325 327 322 332 339 339
347 346 346 346 347 347 345 344 343 342 342 341 341 341 342 343 344 343 342 342 342 343 342 342 342 341 342 340 339 340 341 341 341 341 341 340 340 340 339 340 340 339 337 335 334 332 330 333 330 331 339 338 337 337 338 337 335 329 326 322 328 337
347 347 346 347 346 345 345 344 343 342 341 342 343 343 343 343 342 343 341 342 341 341 342 341 342 342 341 339 340 340 340 340 340 342 339 340 340 340 339 338 337 336 334 335 335 335 332 330 331 333 336 335 337 336 336 336 336 335 328 324 323 327
346 346 346 346 346 344 344 345 343 343 341 341 342 342 343 342 342 343 341 341 341 341 341 341 341 342 341 341 340 341 341 341 341 340 339 339 339 339 339 338 337 336 336 335 334 334 332 332 334 335 338 338 334 334 334 333 331 331 331 329 324 326
344 346 346 345 345 344 344 344 343 343 342 341 341 341 341 341 341 342 340 340 340 340 341 340 341 341 341 341 341 341 340 340 340 341 340 339 338 339 339 338 337 336 335 334 333 333 333 334 334 338 339 338 335 334 331 330 329 330 330 327 326 326
342 344 345 345 345 344 344 343 343 343 342 342 342 340 341 340 340 339 340 340 341 341 340 341 341 340 340 341 341 339 338 338 339 340 340 340 340 340 340 338 338 336 336 339 339 339 339 339 339 339 339 338 337 336 334 333 336 335 332 330 330 328
341 341 340 340 344 344 343 342 342 342 343 344 343 342 341 341 340 339 339 340 340 339 340 339 339 339 340 341 341 340 340 340 340 340 340 340 341 340 340 338 338 338 337 337 337 337 336 337 339 338 337 339 339 337 336 338 338 336 336 335 332 327
331 333 335 335 334 337 341 342 343 342 343 343 343 342 342 341 342 340 341 340 340 340 339 339 339 340 341 341 341 341 341 341 339 340 340 339 339 340 338 337 339 339 338 339 339 337 336 337 338 339 340 338 338 337 337 340 338 336 336 333 330 329
329 331 332 333 335 336 335 336 339 341 342 343 343 343 342 343 344 342 342 342 341 341 340 340 339 341 342 341 341 341 341 340 340 339 338 339 339 339 339 338 339 339 339 340 340 339 337 337 338 338 339 338 338 337 337 338 337 335 337 335 333 333
329 329 330 331 332 332 333 334 334 332 337 342 343 343 343 343 345 347 344 342 343 343 342 342 341 341 341 341 340 340 340 341 339 339 339 339 340 340 339 338 338 338 338 341 340 339 337 337 337 338 338 339 338 336 337 337 336 336 338 338 337 336
330 330 331 332 332 332 332 332 333 334 334 334 338 342 342 342 343 344 345 345 344 344 344 343 342 342 341 340 340 340 339 339 337 337 339 339 338 338 338 339 338 338 338 340 340 339 339 338 338 338 338 338 338 337 338 338 338 339 338 338 337 336
Wind_Speed
6 8 10 7 8 9 11 15 13 12 11 9 7 8 8 8 9 10 11 11 11 8 6 5 8 6 10 8 11 12 11 11 10 9 9 9 9 9 9 9 8 8 7 6 6 7 7 7 7 7 8 8 6 4 4 4 6 5 4 7 8 8
11 11 8 3 5 6 7 12 10 8 8 8 7 9 6 5 7 5 11 8 6 7 6 6 6 10 7 8 10 13 12 11 10 10 9 9 9 9 9 9 9 8 8 7 8 4 5 8 11 9 9 8 3 4 5 6 5 5 8 7 7 10
13 11 10 7 6 6 9 8 9 9 7 10 10 9 7 7 6 6 8 7 5 5 6 4 5 7 8 11 10 13 12 11 11 10 10 9 8 9 9 9 10 9 8 8 5 4 5 5 5 11 9 5 4 4 5 8 8 4 7 8 7 16
13 11 9 7 6 6 7 7 7 6 6 7 8 7 7 7 6 6 6 5 5 3 5 4 7 9 9 3 5 9 11 11 11 11 11 8 8 8 9 10 9 9 6 4 4 5 6 5 5 4 4 5 5 4 6 4 6 5 7 9 9 17
11 9 10 8 8 8 8 7 7 6 6 6 7 5 4 6 6 7 5 4 5 3 4 4 5 4 2 2 2 4 5 5 5 6 10 6 5 6 6 6 5 6 4 5 6 6 7 6 5 6 5 6 5 6 6 5 4 3 7 6 9 16
9 11 10 8 8 8 9 8 8 8 5 5 5 5 5 5 7 7 5 4 3 3 2 3 3 3 3 2 3 4 4 4 4 6 7 6 6 6 6 6 6 6 5 5 6 7 8 7 4 6 6 5 5 4 4 2 2 6 6 6 9 17
10 9 9 7 6 6 7 7 8 7 8 7 4 4 6 6 6 5 5 4 3 2 2 1 4 4 3 3 4 5 4 3 2 3 5 7 7 7 6 6 6 6 6 7 8 9 9 10 5 6 7 7 3 3 3 3 2 4 6 6 9 17
10 8 8 9 7 6 5 6 8 9 7 7 5 6 6 7 5 4 5 4 3 3 4 3 3 5 6 5 7 6 4 3 5 6 3 7 8 7 7 7 7 7 8 8 9 10 10 7 5 5 6 3 4 4 3 2 4 4 6 6 7 14
11 9 8 10 8 6 6 6 8 8 7 7 6 6 7 6 4 4 5 6 5 4 5 5 4 4 3 3 3 2 3 5 6 5 5 6 9 7 8 7 7 7 6 7 9 8 4 3 2 1 2 4 4 4 4 3 3 4 4 5 5 10
12 9 8 9 8 8 7 7 7 8 7 10 7 6 5 5 5 5 6 7 7 6 6 7 5 5 6 6 5 5 6 7 6 6 5 8 9 8 6 6 7 7 8 8 7 4 3 5 6 4 3 3 7 1 3 3 3 4 5 5 5 7
11 9 7 9 8 8 7 7 7 6 6 7 7 6 6 7 6 7 6 8 8 7 6 6 7 7 6 6 5 5 5 5 5 6 5 7 10 7 4 4 5 4 4 4 5 4 3 5 3 7 5 7 4 3 3 2 5 5 4 4 6 6
14 10 7 8 9 8 7 7 7 6 7 8 8 8 7 6 6 6 6 8 8 8 6 5 7 8 8 6 6 5 4 5 6 5 5 7 9 6 3 5 7 4 6 4 5 4 5 5 5 5 8 6 6 2 2 0 3 5 3 3 6 6
14 11 8 7 7 7 7 7 7 7 6 6 6 5 6 5 4 5 6 6 7 6 5 5 6 6 7 6 5 5 5 5 5 5 5 8 9 6 3 4 4 6 6 5 4 5 5 6 5 5 1 4 5 4 3 3 2 2 5 4 4 6
12 15 11 6 7 8 7 6 5 6 6 5 4 4 4 3 4 4 4 7 7 6 6 5 6 6 4 4 4 4 5 5 5 4 4 4 5 8 5 5 5 5 5 5 3 4 3 5 4 2 2 3 0 3 4 4 4 2 2 3 4 4
9 14 14 8 7 7 7 6 7 7 5 5 4 5 6 6 5 5 5 5 6 6 6 5 4 4 4 4 4 4 4 4 4 3 3 4 7 9 5 4 4 7 4 1 3 5 3 4 3 1 3 4 1 4 1 1 2 3 5 3 3 4
10 10 14 13 8 7 6 6 9 7 7 7 5 5 6 5 5 6 6 7 8 8 9 8 7 7 6 5 5 5 5 3 3 3 4 4 6 7 4 4 5 2 1 3 3 6 3 3 3 3 2 2 2 1 1 1 2 3 3 3 4 3
11 11 11 15 14 9 6 7 7 5 6 8 7 6 6 5 5 5 6 6 8 8 8 10 9 9 7 6 6 5 4 5 3 4 3 4 5 6 4 5 3 2 3 3 6 8 5 4 2 2 1 1 3 1 2 3 3 3 2 4 4 3
9 9 10 11 16 14 9 9 6 5 4 4 6 7 7 6 6 5 5 5 6 6 7 8 8 8 7 6 6 6 5 5 5 4 4 3 4 4 5 4 3 4 5 5 5 6 3 3 3 1 0 2 2 1 3 3 1 2 4 3 6 4
9 9 9 10 12 17 14 9 7 7 6 6 6 7 6 7 6 6 5 5 5 6 6 7 8 8 7 7 7 6 5 6 5 4 3 3 4 3 3 2 4 4 3 2 3 2 0 5 3 2 2 2 1 3 2 2 3 3 3 4 5 5
8 8 8 8 9 11 15 11 10 8 7 8 8 7 7 7 6 6 6 6 5 6 7 7 8 7 6 6 6 7 8 7 6 5 5 4 5 5 5 2 3 3 4 4 5 1 3 2 2 2 2 2 3 3 4 3 2 3 3 1 3 3
8 8 8 9 9 9 12 13 13 12 10 11 10 9 8 7 7 7 8 9 7 6 7 8 7 8 6 6 6 5 6 5 6 6 7 7 6 5 3 1 2 1 1 2 4 2 1 1 3 2 1 2 2 3 3 3 3 3 3 2 2 4
8 9 9 9 9 8 9 9 10 12 11 11 10 9 9 8 8 7 8 8 7 7 7 6 5 8 7 7 6 4 5 6 6 7 6 5 5 4 3 4 3 1 2 3 3 4 1 3 3 4 3 2 3 2 3 3 4 4 5 4 4 3
7 9 8 9 8 9 8 8 8 9 10 9 8 9 8 8 8 7 7 7 7 7 8 10 10 9 10 9 6 5 4 5 7 6 6 6 6 6 5 6 5 4 4 4 4 2 2 7 4 4 1 1 3 4 3 3 4 4 5 4 4 3
8 8 8 9 9 9 8 7 8 8 9 8 9 8 7 8 8 8 8 8 8 8 8 7 9 11 9 11 11 8 6 6 7 7 6 6 6 6 6 5 5 5 2 2 1 2 0 5 2 2 3 4 2 2 2 6 5 4 5 5 3 1
7 8 8 9 10 8 8 8 7 6 8 7 6 7 7 7 8 8 8 8 8 9 10 8 8 10 9 10 10 11 12 10 10 8 6 6 7 6 5 5 5 5 5 4 3 2 3 3 6 6 0 2 2 1 3 1 3 1 1 1 1 2
7 8 8 9 9 8 7 8 7 8 9 8 8 9 9 10 9 10 10 8 8 9 9 9 8 8 8 8 8 9 10 10 10 9 9 7 6 5 6 5 5 4 4 3 3 2 4 4 7 8 5 0 1 0 2 1 0 2 2 0 2 0
8 7 7 8 10 8 8 8 9 9 8 9 9 8 8 8 9 8 7 9 9 9 10 9 9 10 9 8 7 7 8 8 7 7 7 7 7 7 6 6 5 5 5 5 5 4 5 5 4 8 6 2 1 1 1 1 1 1 1 1 2 1
9 8 8 7 10 9 9 9 9 9 9 10 10 9 11 9 8 8 9 10 8 8 10 10 9 9 9 7 7 8 8 8 7 6 7 7 7 6 5 5 6 6 5 5 6 6 4 4 6 6 4 4 3 3 2 2 0 1 2 1 1 1
9 9 9 10 9 11 9 9 9 9 10 9 9 9 8 8 9 9 10 9 9 9 9 9 9 9 9 9 9 9 10 9 8 7 7 7 6 6 7 7 7 6 7 7 6 6 6 5 9 7 4 2 2 2 2 1 1 1 1 2 2 2
11 9 9 10 10 11 11 9 10 10 11 10 9 9 9 10 10 9 10 10 9 9 9 8 9 10 9 10 10 9 9 9 9 9 8 8 8 8 7 6 6 6 6 6 7 6 7 7 8 7 4 2 3 3 2 2 1 2 1 1 1 1
13 9 9 10 11 12 11 11 10 11 12 11 11 9 8 10 10 10 10 10 10 9 9 9 8 8 10 10 9 8 8 7 7 8 8 9 9 8 7 7 7 8 8 8 6 7 8 9 10 7 3 4 4 4 4 3 5 5 3 2 3 2
13 12 10 10 10 11 10 11 11 11 12 11 10 9 9 9 11 11 11 10 10 9 9 9 9 8 9 10 9 9 10 9 9 9 9 8 8 8 8 8 7 8 8 7 6 8 8 8 7 5 4 4 4 3 3 2 1 3 5 3 3 2
13 12 11 9 9 10 10 11 11 11 10 9 10 9 9 9 9 10 10 10 10 10 9 9 9 10 10 11 9 9 10 9 9 9 9 9 8 9 9 8 8 8 8 8 7 8 6 6 6 6 5 5 4 4 4 4 3 3 3 3 4 2
16 16 15 13 16 13 11 11 10 10 9 9 9 9 8 8 8 8 7 9 9 9 9 10 10 10 10 11 9 9 9 9 9 8 8 9 9 8 8 7 7 8 9 8 7 8 7 6 6 6 5 5 5 5 4 4 4 3 4 4 4 4
8 12 13 13 12 13 12 14 11 11 10 8 8 8 8 7 6 7 7 8 8 8 8 8 9 8 10 10 11 9 9 9 10 9 9 9 9 9 8 8 8 9 8 7 7 7 7 7 7 6 5 5 4 4 4 3 4 4 4 4 4 4
2 9 11 8 6 8 10 11 13 15 15 11 8 7 6 6 5 4 6 7 7 8 7 7 8 8 9 10 10 10 10 9 10 8 9 9 9 7 7 8 8 7 8 6 7 8 7 7 7 6 6 4 3 4 5 5 4 5 5 4 4 3
7 7 9 10 9 8 9 7 9 11 15 16 13 9 7 7 6 5 5 6 6 7 7 7 7 7 9 9 8 9 9 9 10 9 9 8 9 8 8 8 7 8 8 7 6 6 6 7 6 6 5 6 5 5 4 4 5 5 4 4 4 4
Wind_Direction
126 200 196 176 169 184 181 178 147 157 176 181 182 196 198 203 227 215 202 197 197 191 193 189 202 198 199 203 191 193 183 186 181 180 183 182 181 181 176 178 184 192 201 217 231 245 257 254 246 243 243 249 264 279 261 263 266 270 128 113 118 135
156 197 183 187 165 167 173 177 143 165 175 170 181 204 205 208 234 230 207 204 195 193 185 196 207 196 195 203 193 195 184 188 185 187 188 191 189 187 186 185 190 195 205 216 229 245 245 244 240 237 240 245 252 257 269 261 262 254 109 106 115 141
168 186 174 169 172 171 168 162 152 154 164 169 188 197 200 207 218 227 209 200 196 195 170 181 206 209 194 201 191 192 186 187 189 191 198 200 197 196 193 197 198 200 211 222 232 243 253 215 210 226 235 243 236 246 256 257 262 116 108 107 120 144
157 178 158 171 168 172 154 162 154 146 160 177 189 197 193 198 214 220 212 198 209 169 140 179 223 217 214 207 211 186 192 189 195 197 203 203 210 212 208 210 209 211 213 228 231 243 241 231 187 178 200 226 231 233 249 264 279 105 118 123 133 147
150 166 163 164 166 175 152 154 147 154 194 180 181 191 184 199 210 209 214 213 205 162 150 166 168 204 167 174 117 236 206 195 193 198 203 213 202 218 213 220 217 219 225 226 233 234 240 238 166 170 195 214 217 219 228 221 276 65 101 117 134 148
158 171 162 161 166 169 158 165 142 151 187 222 189 176 188 203 212 201 197 209 201 130 128 174 126 121 127 29 20 301 265 219 203 202 196 219 199 217 203 228 215 207 225 233 231 237 237 239 171 173 189 202 216 207 222 201 242 89 108 122 147 154
168 174 150 136 146 159 164 164 135 140 184 202 181 171 202 216 205 187 188 186 163 119 103 249 149 120 124 145 171 216 224 271 256 240 220 214 213 206 206 223 219 210 211 230 231 234 234 227 200 190 195 188 197 213 206 240 110 117 121 137 155 160
173 165 133 143 152 161 158 163 130 150 186 196 186 189 205 213 204 173 177 160 166 169 132 217 144 153 164 175 197 196 188 243 233 222 229 240 237 196 203 213 227 210 207 220 230 237 235 194 181 213 163 172 177 210 158 228 173 120 131 139 155 166
177 176 131 144 156 156 170 162 140 151 166 188 198 194 196 186 172 162 184 180 165 169 162 226 180 171 180 190 193 166 163 219 236 235 215 253 249 225 191 201 223 218 202 218 229 232 254 178 224 186 267 177 180 209 162 200 117 107 129 133 154 171
174 179 152 141 151 160 165 152 150 162 165 177 196 187 186 185 173 178 187 176 177 181 180 175 177 171 181 191 175 183 190 204 208 222 217 239 248 245 189 197 220 222 211 216 233 227 221 252 174 187 208 251 182 182 131 182 132 108 149 147 156 170
167 172 163 141 140 153 158 152 155 163 164 180 182 186 191 189 188 193 178 174 180 176 180 166 166 170 192 197 167 188 199 200 214 220 221 247 255 254 182 204 234 212 240 224 231 237 185 249 197 184 171 232 127 115 208 199 123 150 163 157 141 160
159 166 165 146 137 142 150 150 154 164 183 189 182 186 190 185 191 186 180 179 182 174 170 174 188 175 184 191 176 185 197 199 216 231 230 248 265 257 216 205 235 220 244 226 229 246 175 250 262 190 181 202 126 171 178 81 106 151 159 163 141 164
153 164 159 158 135 129 131 132 159 189 197 188 184 176 182 189 185 180 178 183 177 159 163 179 189 201 185 182 170 166 189 210 223 224 234 255 276 282 242 226 223 225 225 246 223 237 201 199 250 261 209 157 141 165 165 118 106 148 167 160 159 159
161 159 171 154 130 126 127 131 180 197 193 184 181 156 173 195 188 184 180 182 177 158 158 167 184 193 191 173 168 178 191 206 223 223 250 268 280 276 234 225 226 230 220 242 275 232 240 191 222 299 57 19 353 175 146 153 149 138 151 151 168 159
169 162 160 160 140 125 134 154 191 197 189 180 162 177 190 185 182 177 188 186 182 157 162 164 191 184 183 182 186 189 201 208 208 232 252 260 262 262 246 247 207 225 203 175 295 284 263 274 197 178 62 60 8 66 85 150 159 166 169 163 145 172
167 168 158 157 150 131 147 197 204 178 172 173 166 183 194 191 185 182 187 184 184 177 165 168 181 179 185 181 183 196 202 214 207 211 236 260 279 274 228 249 245 215 192 173 238 259 251 241 51 74 59 77 62 153 153 104 162 223 156 140 153 153
168 172 160 150 149 132 161 213 231 202 168 155 168 180 197 192 187 193 195 196 181 183 175 171 179 178 171 179 181 181 200 210 218 218 228 246 263 276 283 249 237 187 234 199 208 239 232 97 102 55 89 204 156 248 157 200 221 204 214 148 154 174
164 173 158 159 147 148 168 194 228 234 211 182 179 180 190 192 187 186 200 203 172 175 185 175 181 176 168 174 178 179 182 199 209 216 223 254 269 296 291 299 248 198 215 221 218 241 201 134 117 126 124 241 161 247 200 187 260 240 209 195 141 166
163 170 164 158 155 151 160 175 195 219 223 221 206 193 186 191 185 183 195 201 176 174 179 176 181 176 162 176 178 176 180 193 194 199 218 232 258 275 324 344 341 343 337 305 257 309 219 128 133 142 215 250 183 222 265 198 197 230 227 223 150 171
167 173 161 158 159 161 156 167 181 195 211 216 200 193 190 192 180 179 183 189 198 168 182 181 182 172 168 178 186 187 185 190 189 185 197 206 226 233 248 263 310 339 343 328 304 30 332 86 100 153 226 211 227 231 231 217 194 245 247 264 134 135
169 173 173 168 170 175 174 174 169 178 191 199 196 189 191 193 189 183 180 179 185 175 186 182 168 171 172 198 208 205 188 190 189 196 193 206 207 220 223 174 237 228 309 317 297 272 245 245 146 189 244 234 253 253 253 247 218 231 259 226 194 182
171 176 185 179 169 182 185 185 177 182 183 188 187 183 189 192 190 181 178 175 175 181 186 172 170 175 182 196 195 200 209 200 202 205 201 192 195 195 187 199 210 197 238 241 259 257 195 261 193 190 183 228 247 226 233 247 241 224 224 219 210 176
182 178 190 180 175 184 184 192 186 178 182 184 192 189 186 185 179 176 173 172 177 188 197 177 170 194 179 185 196 202 216 214 208 203 198 195 200 196 192 186 186 177 219 224 250 283 245 243 212 184 122 81 227 212 216 253 244 233 225 224 223 186
189 186 192 189 186 183 185 191 191 173 185 185 186 183 185 175 176 169 176 182 186 193 189 184 177 190 180 179 174 179 204 236 228 205 191 192 199 201 188 189 187 191 215 242 357 302 120 309 329 186 164 206 195 206 196 226 209 214 214 213 205 221
193 191 197 199 192 180 183 192 188 177 175 193 172 177 186 181 178 183 180 183 190 191 189 194 189 186 185 183 179 171 188 201 208 201 194 197 198 200 192 185 184 185 188 188 223 285 302 241 294 255 164 166 183 213 233 70 207 217 31 358 212 174
197 192 202 203 196 186 181 190 183 188 179 188 184 176 189 188 184 188 194 184 186 188 189 185 195 193 194 180 180 188 186 192 189 192 192 191 185 180 184 176 176 171 184 175 163 216 290 282 241 259 241 321 30 221 138 256 336 230 355 269 277 200
196 195 203 204 200 194 186 194 199 196 189 189 192 190 187 190 186 189 188 186 187 185 190 193 191 194 195 182 177 177 190 198 196 190 187 185 182 190 185 169 159 166 183 172 167 197 226 234 281 269 245 180 149 182 173 113 136 97 359 287 240 72
195 196 198 206 205 204 198 192 199 198 198 197 198 190 187 189 186 184 190 190 187 185 193 196 191 197 188 172 176 185 191 194 199 190 190 191 187 184 178 163 166 172 176 187 169 191 222 250 223 228 203 167 190 188 199 240 66 135 118 99 316 152
207 196 196 203 204 207 210 200 203 204 205 205 201 197 181 187 191 189 191 183 184 188 195 195 189 193 190 187 186 190 192 191 195 183 197 188 186 187 188 170 172 179 196 196 181 176 193 218 233 235 182 197 169 172 157 184 175 145 174 147 252 206
226 212 197 199 203 212 211 209 207 210 212 205 205 201 185 185 187 183 190 182 187 189 189 192 192 189 191 190 189 187 188 192 191 181 196 188 189 190 186 179 179 190 201 190 195 187 191 205 242 232 208 171 174 155 162 134 150 179 261 266 252 22
249 225 212 203 199 210 213 215 216 213 216 215 206 205 195 185 183 177 188 184 187 191 185 191 192 190 192 193 189 172 177 186 198 199 183 186 185 183 176 176 179 181 193 195 184 192 203 198 215 230 195 180 192 180 181 180 160 180 179 168 187 221
269 252 233 216 207 208 213 220 223 220 221 223 216 208 205 198 181 184 186 187 188 187 188 186 186 188 192 195 186 180 182 187 186 192 188 189 185 180 177 178 181 185 195 199 189 194 203 204 203 213 200 192 203 186 189 207 139 157 170 186 163 138
263 273 280 278 239 210 216 228 225 227 226 223 226 217 210 213 193 189 187 187 185 192 185 183 185 186 189 194 194 183 182 183 182 187 188 188 191 183 172 175 184 187 192 195 196 193 201 213 206 206 199 192 190 190 193 182 166 165 167 131 138 129
325 330 319 315 307 293 262 232 232 236 235 227 227 224 220 214 206 196 188 191 187 193 189 187 184 190 185 188 191 179 179 182 182 183 184 186 192 193 167 183 194 189 192 197 194 192 200 216 223 211 195 194 195 195 199 171 163 166 184 158 164 161
344 319 320 321 318 307 295 299 281 261 244 236 233 231 230 222 215 194 188 189 193 190 195 188 189 181 181 187 191 188 178 176 182 182 187 188 189 188 175 186 199 198 194 189 193 188 198 212 221 203 202 198 189 185 203 182 158 185 203 189 169 161
245 288 292 301 315 318 315 310 312 301 285 262 243 242 240 232 232 217 194 193 193 187 194 186 186 177 182 188 190 187 181 175 176 178 184 185 184 176 172 186 196 193 196 192 196 194 196 211 221 209 205 194 192 203 191 189 178 203 213 174 159 129
333 300 301 297 291 274 267 272 302 307 294 290 275 243 240 236 227 232 218 198 196 193 197 191 182 180 178 183 188 190 183 166 175 184 183 181 182 179 187 189 190 194 197 195 198 205 198 208 211 205 198 200 204 201 195 177 198 198 208 177 165 157